Regional Weather Roundup
Issued by NWS Wakefield, VA

Home | Current Version | Previous Version | Graphics & Text | Print | Product List | Glossary On
Versions: 1 2 3 4 5 6 7 8 9 10 11 12 13 14 15 16 17 18 19 20 21 22 23 24 25 26 27 28 29 30 31 32 33 34 35 36 37 38 39 40 41 42 43 44 45 46 47 48 49 50
000
ASUS41 KAKQ 252314
RWRAKQ

REGIONAL WEATHER ROUNDUP
NATIONAL WEATHER SERVICE WAKEFIELD VA
600 PM EST SAT FEB 25 2017

Note: "fair" indicates few or no clouds below 12,000 feet with no
significant weather and/or obstructions to visibility. * = Denotes
station may not report precipitation (e.g., rain,snow,etc.),
thunder or fog.

VAZ042-051-052>054-056-260000-
NORTHERN VIRGINIA

CITY           SKY/WX    TMP DP  RH WIND       PRES   REMARKS
WASH NATIONAL  MOCLDY    56  40  55 NW15G29   29.60R
DULLES         PTCLDY    54  36  50 NW15G24   29.60R
FORT BELVOIR   PTCLDY    56  40  56 NW10G20   29.60R
QUANTICO       CLOUDY    59  46  62 N9        29.59R
FREDERICKSBRG* CLOUDY    63  41  44 W12G18    29.57R
STAFFORD*      CLOUDY    58  41  53 NW12G22   29.63R
WARRENTON      MOCLDY    59  34  38 W10       29.59R
CULPEPER*      PTCLDY    59  37  44 NW6       29.61R
MANASSAS*      CLOUDY    56  41  57 NW14G21   29.60R
LEESBURG*      PTCLDY    54  41  62 MISG      29.62R
WINCHESTER     CLEAR     52  27  37 W24G32    29.63R
FRONT ROYAL*   NOT AVBL
LURAY*         NOT AVBL
$$

VAZ048-049-060>072-079>083-260000-
CENTRAL AND SOUTH CENTRAL VIRGINIA

CITY           SKY/WX    TMP DP  RH WIND       PRES   REMARKS
RICHMOND       MOCLDY    63  42  46 W14G28    29.56R
CHESTERFIELD*  FAIR      61  34  36 W13       29.59R
PETERSBURG*    PTCLDY    61  46  58 W5G10     29.59R
HANOVER        CLOUDY    63  41  44 NW14      29.59R
TAPPAHANNOCK*  MOCLDY    62  56  79 NW7       29.56R
QUINTON*       MOCLDY    64  47  54 W16G25    29.55R
CHARLOTTSVILLE PTCLDY    58  31  35 W10G20    29.61R
GORDONSVILLE*  CLEAR     58  36  43 W6G16     29.60R
ORANGE*        PTCLDY    57  36  44 SW12      29.62R
LOUISA*        MOCLDY    63  41  45 W16       29.59R
BUMPASS*       NOT AVBL
FARMVILLE*     PTCLDY    62  38  41 W7        29.61R
CREWE*         FAIR      61  41  48 NW8       29.59R
FORT PICKETT*  NOT AVBL
CHASE CITY*    NOT AVBL
CLARKSVILLE*   MOCLDY    61  43  51 NW5       29.59R
SOUTH HILL*    PTCLDY    60  47  61 NW5       29.65R
LAWRENCEVILLE* NOT AVBL
EMPORIA*       PTCLDY    63  50  63 W9G16     29.60R
$$

VAZ088>098-260000-
SOUTHEAST VIRGINIA

CITY           SKY/WX    TMP DP  RH WIND       PRES   REMARKS
NORFOLK        MOCLDY    74  57  55 S16G24    29.51R
VIRGINIA BEACH PTCLDY    72  55  55 S12       29.51R
NORFOLK NAVAL  MOCLDY    76  54  46 S12G21    29.51R THUNDER
WEST POINT*    CLOUDY    58  55  90 W6        29.56R
SALUDA*        CLOUDY    60  58  91 W5G18     29.56R
NEWPORT NEWS   TSTM      60  55  83 W14G35    29.55R
LANGLEY AFB    HAIL      57  55  94 NW13G38   29.54R VSB 1/4
FORT EUSTIS    CLOUDY    59  55  88 W12       29.52R
WILLIAMSBURG*  CLOUDY    61  55  82 CALM      29.56R
HR EXEC AP*    FAIR      75  55  50 SW10G23   29.49R
FRANKLIN*      MOCLDY    74  54  50 W18G29    29.55R
US460-WAKEFLD  CLOUDY    60  57  89 W3        29.56R
$$

VAZ020-022-025-037-045-260000-
WEST CENTRAL AND SOUTHWEST VIRGINIA

CITY           SKY/WX    TMP DP  RH WIND       PRES   REMARKS
STAUNTON*      CLEAR     51  26  37 W14G22    29.69R
WAYNESBORO*    CLEAR     52  26  36 W9G29     29.66R
HOT SPRINGS VA MOCLDY    37  21  52 W25G33    29.67R
LYNCHBURG      CLEAR     56  32  40 W13G20    29.66R
DANVILLE       PTCLDY    62  33  33 W17G26    29.64R
SOUTH BOSTON*  NOT AVBL
MARTINSVILLE   CLEAR     58  29  33 NW6       29.71R
ROANOKE        PTCLDY    54  29  38 NW16G23   29.72R
BLACKSBURG     CLEAR     49  28  45 W10G22    29.76R
DUBLIN*        PTCLDY    49  29  45 NW18G24   29.76R
MARION*        PTCLDY    46  26  46 NW20G31   29.79R
HILLSVILLE*    PTCLDY    47  21  35 W20G30    29.74R
RICHLANDS*     FAIR      39  23  52 NW3G23    29.83R
WISE*          CLEAR     37  18  44 W15G25    29.89R
ABINGDON*      CLEAR     46  19  32 NW17G28   29.85R
$$

MDZ021>025-VAZ099-100-260000-
SOUTHERN MARYLAND AND THE DELMARVA PENINSULA

CITY           SKY/WX    TMP DP  RH WIND       PRES   REMARKS
PATUXENT RIVER MOCLDY    56  51  84 N17       29.56R
BAY BRIDGE APT CLOUDY    54  45  71 NW10G21   29.60R
LEONARDTOWN    CLOUDY    54  48  82 NW8G16    29.59R
DOVER          NOT AVBL
GEORGETOWN     TSTM      65  59  81 W7        29.53R
EASTON         NOT AVBL
CAMBRIDGE      CLOUDY    55  48  76 NW14      29.60R
SALISBURY      HVY RAIN  62  59  90 S14       29.54R FOG
OCEAN CITY     CLOUDY    56  53  90 SW14G22   29.51F
WALLOPS ISLAND MOCLDY    57  55  93 S16       29.51F
ACCOMACK*      TSTM      58  54  84 W10G32    29.55R
$$

NCZ012>017-030>032-260000-
NORTH CENTRAL AND EASTERN NORTH CAROLINA

CITY           SKY/WX    TMP DP  RH WIND       PRES   REMARKS
ROANOKE RAPIDS FAIR      68  52  56 NW13G26   29.57R
RALEIGH        PTCLDY    74  49  41 SW20G25   29.58R
ELIZABETH CITY CLEAR     71  57  61 S14G23    29.55S
AHOSKIE*         N/A     74  54  48 SW6       29.54R
EDENTON*       CLEAR     73  59  61 S14G23    29.57R
CURRITUCK*     CLEAR     71  56  60 S9G18     29.55R
KILL DEVIL HLS NOT AVBL
MANTEO         CLEAR     65  61  85 SW21G26   29.59S
CAPE HATTERAS  CLEAR     71  63  75 SW17G26   29.64F HAZE
TARBORO*       NOT AVBL
GOLDSBORO      CLEAR     75  53  45 SW14G23   29.58R
WASHINGTON     CLEAR     73  61  66 S9        29.58R
GREENVILLE     PTCLDY    77  52  41 SW10G16   29.61R
NEW BERN       CLEAR     70  62  76 S13       29.62S
WILMINGTON     CLEAR     68  60  75 SW14G22   29.67R
$$

VAZ048-260000-
ELSEWHERE

CITY           SKY/WX    TMP DP  RH WIND       PRES   REMARKS
HARRISBURG PA  CLOUDY    50  42  74 NW8       29.60R
BALTIMORE      MOCLDY    53  40  61 NW17      29.59R
ANNAPOLIS      MOCLDY    55  44  66 NW14G22   29.58R
ANDREWS AFB    PTCLDY    54  40  59 NW18G29   29.58R
PHILADELPHIA   CLOUDY    55  49  80 NW15G24   29.56R
GREENSBORO     PTCLDY    63  18  17 W23G32    29.66R
ROCKY MOUNT    CLEAR     74  54  49 SW15G25   29.57R
$$

VAZ100-260000-
MARINE

STATION/POSITION TIME  TEMP    WIND        PRES    WAVE   SWELL
                       AIR SEA DIR/SP/G            HT/PER HT/PER
                 (UTC) (F)     (DEG/KT/KT) (MB)    (FT/S) (FT/S)
CAPE MAY NJ      2248   52 48  160/ 10/ 17  998.8R
LEWES DE         2248          270/ 13/ 16 1000.0R
OCEAN-CITY-INLET 2248          220/ 15/ 18  999.5F
WACHAPREAGUE VA  2248   60 59  260/ 14/ 19 1001.0R
THOMAS POINT MD  2300   55 45  320/ 21/ 25   N/A
GOOSES REEF MD   2300   51 44  350/ 16/ 19 1002.3    2/ 3
COVE POINT MD    2248   51     350/ 14/ 16 1002.0R
SOLOMONS ISLAND  2248          340/ 13/ 18   N/A
BISHOPS HEAD MD  2248   57 55  320/ 15/ 16 1001.1R
PINEY POINT MD   2248           10/ 15/ 17   N/A
POTOMAC MD       2300   56 47   10/ 10/ 14  999.9    1/ 3
CAMBRIDGE MD     2248   54 46  300/ 12/ 14 1000.8R
LEWISETTA VA     2248   58 52   10/  5/  6 1000.6R
RAPPAHANNOCK LGT 2248          290/ 25/ 33 1001.2R
YORK RVR RNG VA  2248          270/ 20/ 32 1000.3R
YORKTOWN VA      2248      50  270/ 16/ 20 1000.1R
JAMESTOWN VA     2300      54  280/ 10/ 14   N/A     1
DOMINION TERM VA 2248   69     190/ 13/ 16  998.3F
KIPTOPEKE VA     2248          170/ 17/ 18   N/A
CHES BAY BRIDGE  2248   71 49  190/ 18/ 20  998.9R
CAPE HENRY VA    2248   73     180/ 10/ 15   N/A
WILLOUBY STN VA  2248   74     200/ 15/ 17  999.7R
S CRANEY ISL VA  2248   74     200/ 12/ 18  998.6R
CAPE HENRY BUOY  2242      50                N/A     5/10   2/11
OFFSHORE WE BUOY 2251      50                N/A     6/10   2/11
64NM E OF VA BCH 2250   59 54  190/ 17/ 21 1000.7F   5/11   5/11
DUCK PIER NC     2248   67 50  190/ 16/ 22 1000.4F
44100 DUCK FRF   2235      51                N/A     5/11   3/11
44056 DUCK FRF   2230      51                N/A     5/11   2/11
OREGON INLET NC  2248          180/ 18/ 23 1002.3F
HATTERAS NC      2248   69 64  200/ 13/ 17 1003.4F
DIAMOND SHLS NC  2250   73 76  210/ 25/ 33 1003.5F   8/10   7/10
CAPE LOOKOUT NC  2300   69     210/ 13/ 18 1004.1F
$$



USA.gov is the U.S. government's official web portal to all federal, state and local government web resources and services.